Location: Albany
(35.0170°S, 117.8920°E)
Time: 03:03:48
(UTC+08:00)

N. Korean satellite - Pass Details

Date: 02 December 2020
Orbit: 453 x 502 km, 97.2° (Epoch: 16 January)

Event Time Altitude Azimuth Distance (km) Brightness Sun altitude
Rises 04:12:22 0° 39° (NE) 2,595 10.3 -7.0°
Reaches altitude 10° 04:14:43 10° 53° (NE) 1,718 9.6 -6.6°
Maximum altitude 04:17:44 24° 108° (ESE) 1,083 9.5 -6.1°
Drops below altitude 10° 04:20:46 10° 163° (SSE) 1,727 10.2 -5.6°
Sets 04:23:08 0° 176° (S) 2,612 10.8 -5.2°
